contact:dominique.lefevre@mio.osupytheas.fr, maurice.libes@osupytheas.fr, didier.mallarino@osupytheas.fr
Project:EMSO http://www.emso-fr.org/EMSO-France
Depth: 2436.0 m
Title:EMSO Ligure Ouest : Data MII capteur MICROCAT
DateTime_Computer,Latitude,Longitude,Temperature,Conductivity,Pressure,DateTime_Instrument
DateTime_Computer,Latitude,Longitude,degC,S m-1,dbar,DateTime_Instrument
2019-06-08T00:02:55Z,42.805,6.029,13.2951,4.59949,2469.923,2019-6-08T02:03:11Z
2019-06-08T00:05:58Z,42.805,6.029,13.2954,4.59949,2469.947,2019-6-08T02:06:14Z
2019-06-08T00:09:01Z,42.805,6.029,13.2949,4.59950,2469.96,2019-6-08T02:09:17Z
2019-06-08T00:12:04Z,42.805,6.029,13.2952,4.59950,2469.937,2019-6-08T02:12:20Z
2019-06-08T00:15:07Z,42.805,6.029,13.2954,4.59950,2469.947,2019-6-08T02:15:23Z
2019-06-08T00:18:10Z,42.805,6.029,13.2950,4.59949,2469.923,2019-6-08T02:18:26Z
2019-06-08T00:21:13Z,42.805,6.029,13.2952,4.59949,2469.937,2019-6-08T02:21:28Z
2019-06-08T00:24:16Z,42.805,6.029,13.2953,4.59948,2469.947,2019-6-08T02:24:31Z
2019-06-08T00:27:19Z,42.805,6.029,13.2950,4.59950,2469.96,2019-6-08T02:27:34Z
2019-06-08T00:30:22Z,42.805,6.029,13.2948,4.59949,2469.937,2019-6-08T02:30:37Z
2019-06-08T00:33:25Z,42.805,6.029,13.2950,4.59948,2469.937,2019-6-08T02:33:40Z
2019-06-08T00:36:28Z,42.805,6.029,13.2956,4.59949,2469.947,2019-6-08T02:36:43Z
2019-06-08T00:39:31Z,42.805,6.029,13.2950,4.59952,2469.914,2019-6-08T02:39:46Z
2019-06-08T00:42:34Z,42.805,6.029,13.2952,4.59950,2469.923,2019-6-08T02:42:49Z
2019-06-08T00:45:36Z,42.805,6.029,13.2953,4.59950,2469.933,2019-6-08T02:45:52Z
2019-06-08T00:48:39Z,42.805,6.029,13.2949,4.59950,2469.937,2019-6-08T02:48:55Z
2019-06-08T00:51:42Z,42.805,6.029,13.2952,4.59949,2469.9,2019-6-08T02:51:58Z
2019-06-08T00:54:45Z,42.805,6.029,13.2952,4.59951,2469.914,2019-6-08T02:55:01Z
2019-06-08T00:57:48Z,42.805,6.029,13.2950,4.59949,2469.937,2019-6-08T02:58:04Z
2019-06-08T01:00:51Z,42.805,6.029,13.2952,4.59951,2469.937,2019-6-08T03:01:07Z
2019-06-08T01:03:54Z,42.805,6.029,13.2950,4.59950,2469.9,2019-6-08T03:04:10Z
2019-06-08T01:06:57Z,42.805,6.029,13.2949,4.59949,2469.937,2019-6-08T03:07:13Z
2019-06-08T01:10:00Z,42.805,6.029,13.2955,4.59949,2469.914,2019-6-08T03:10:16Z
2019-06-08T01:13:03Z,42.805,6.029,13.2953,4.59948,2469.9,2019-6-08T03:13:19Z
2019-06-08T01:16:06Z,42.805,6.029,13.2948,4.59951,2469.947,2019-6-08T03:16:21Z
2019-06-08T01:19:09Z,42.805,6.029,13.2953,4.59949,2469.914,2019-6-08T03:19:24Z
2019-06-08T01:22:12Z,42.805,6.029,13.2950,4.59948,2469.937,2019-6-08T03:22:27Z
2019-06-08T01:25:15Z,42.805,6.029,13.2946,4.59950,2469.923,2019-6-08T03:25:30Z
2019-06-08T01:28:18Z,42.805,6.029,13.2950,4.59951,2469.914,2019-6-08T03:28:33Z
2019-06-08T01:31:21Z,42.805,6.029,13.2948,4.59949,2469.937,2019-6-08T03:31:36Z
2019-06-08T01:34:24Z,42.805,6.029,13.2948,4.59949,2469.9,2019-6-08T03:34:39Z
2019-06-08T01:37:27Z,42.805,6.029,13.2949,4.59948,2469.876,2019-6-08T03:37:42Z
2019-06-08T01:40:30Z,42.805,6.029,13.2947,4.59949,2469.914,2019-6-08T03:40:45Z
2019-06-08T01:43:32Z,42.805,6.029,13.2951,4.59950,2469.937,2019-6-08T03:43:48Z
2019-06-08T01:46:35Z,42.805,6.029,13.2951,4.59950,2469.9,2019-6-08T03:46:51Z
2019-06-08T01:49:38Z,42.805,6.029,13.2951,4.59949,2469.9,2019-6-08T03:49:54Z
2019-06-08T01:52:41Z,42.805,6.029,13.2951,4.59949,2469.867,2019-6-08T03:52:57Z
2019-06-08T01:55:44Z,42.805,6.029,13.2950,4.59950,2469.89,2019-6-08T03:56:00Z
2019-06-08T01:58:47Z,42.805,6.029,13.2951,4.59950,2469.89,2019-6-08T03:59:03Z
2019-06-08T02:01:50Z,42.805,6.029,13.2952,4.59949,2469.89,2019-6-08T04:02:06Z
2019-06-08T02:04:53Z,42.805,6.029,13.2953,4.59949,2469.914,2019-6-08T04:05:09Z
2019-06-08T02:07:56Z,42.805,6.029,13.2950,4.59949,2469.876,2019-6-08T04:08:12Z
2019-06-08T02:10:59Z,42.805,6.029,13.2949,4.59950,2469.89,2019-6-08T04:11:14Z
2019-06-08T02:14:02Z,42.805,6.029,13.2953,4.59949,2469.853,2019-6-08T04:14:17Z
2019-06-08T02:17:05Z,42.805,6.029,13.2951,4.59950,2469.89,2019-6-08T04:17:20Z
2019-06-08T02:20:08Z,42.805,6.029,13.2952,4.59948,2469.853,2019-6-08T04:20:23Z
2019-06-08T02:23:11Z,42.805,6.029,13.2947,4.59949,2469.853,2019-6-08T04:23:26Z
2019-06-08T02:26:14Z,42.805,6.029,13.2951,4.59948,2469.867,2019-6-08T04:26:29Z
2019-06-08T02:29:17Z,42.805,6.029,13.2951,4.59949,2469.876,2019-6-08T04:29:32Z
2019-06-08T02:32:20Z,42.805,6.029,13.2949,4.59948,2469.867,2019-6-08T04:32:35Z
2019-06-08T02:35:22Z,42.805,6.029,13.2951,4.59949,2469.853,2019-6-08T04:35:38Z
2019-06-08T02:38:25Z,42.805,6.029,13.2950,4.59948,2469.89,2019-6-08T04:38:41Z
2019-06-08T02:41:28Z,42.805,6.029,13.2949,4.59949,2469.853,2019-6-08T04:41:44Z
2019-06-08T02:44:31Z,42.805,6.029,13.2949,4.59948,2469.844,2019-6-08T04:44:47Z
2019-06-08T02:47:34Z,42.805,6.029,13.2951,4.59949,2469.853,2019-6-08T04:47:50Z
2019-06-08T02:50:37Z,42.805,6.029,13.2952,4.59948,2469.83,2019-6-08T04:50:53Z
2019-06-08T02:53:40Z,42.805,6.029,13.2953,4.59947,2469.867,2019-6-08T04:53:56Z
2019-06-08T02:56:43Z,42.805,6.029,13.2951,4.59949,2469.83,2019-6-08T04:56:59Z
2019-06-08T02:59:46Z,42.805,6.029,13.2951,4.59949,2469.867,2019-6-08T05:00:02Z
2019-06-08T03:02:49Z,42.805,6.029,13.2949,4.59951,2469.83,2019-6-08T05:03:05Z
2019-06-08T03:05:52Z,42.805,6.029,13.2950,4.59948,2469.83,2019-6-08T05:06:07Z
2019-06-08T03:08:55Z,42.805,6.029,13.2948,4.59947,2469.844,2019-6-08T05:09:10Z
2019-06-08T03:11:58Z,42.805,6.029,13.2951,4.59948,2469.806,2019-6-08T05:12:13Z
2019-06-08T03:15:01Z,42.805,6.029,13.2950,4.59948,2469.853,2019-6-08T05:15:16Z
2019-06-08T03:18:04Z,42.805,6.029,13.2950,4.59948,2469.83,2019-6-08T05:18:19Z
2019-06-08T03:21:07Z,42.805,6.029,13.2949,4.59948,2469.821,2019-6-08T05:21:22Z
2019-06-08T03:24:10Z,42.805,6.029,13.2950,4.59948,2469.844,2019-6-08T05:24:25Z
2019-06-08T03:27:13Z,42.805,6.029,13.2950,4.59949,2469.83,2019-6-08T05:27:28Z
2019-06-08T03:30:15Z,42.805,6.029,13.2951,4.59948,2469.844,2019-6-08T05:30:31Z
2019-06-08T03:33:18Z,42.805,6.029,13.2952,4.59950,2469.844,2019-6-08T05:33:34Z
2019-06-08T03:36:21Z,42.805,6.029,13.2948,4.59948,2469.806,2019-6-08T05:36:37Z
2019-06-08T03:39:24Z,42.805,6.029,13.2952,4.59950,2469.844,2019-6-08T05:39:40Z
2019-06-08T03:42:27Z,42.805,6.029,13.2948,4.59950,2469.821,2019-6-08T05:42:43Z
2019-06-08T03:45:30Z,42.805,6.029,13.2947,4.59948,2469.821,2019-6-08T05:45:46Z
2019-06-08T03:48:33Z,42.805,6.029,13.2952,4.59948,2469.797,2019-6-08T05:48:49Z
2019-06-08T03:51:36Z,42.805,6.029,13.2947,4.59948,2469.821,2019-6-08T05:51:52Z
2019-06-08T03:54:39Z,42.805,6.029,13.2950,4.59948,2469.821,2019-6-08T05:54:55Z
2019-06-08T03:57:42Z,42.805,6.029,13.2950,4.59948,2469.783,2019-6-08T05:57:58Z
2019-06-08T04:00:45Z,42.805,6.029,13.2951,4.59949,2469.806,2019-6-08T06:01:00Z
2019-06-08T04:03:48Z,42.805,6.029,13.2953,4.59949,2469.806,2019-6-08T06:04:03Z
2019-06-08T04:06:51Z,42.805,6.029,13.2952,4.59947,2469.806,2019-6-08T06:07:06Z
2019-06-08T04:09:54Z,42.805,6.029,13.2955,4.59949,2469.806,2019-6-08T06:10:09Z
2019-06-08T04:12:57Z,42.805,6.029,13.2948,4.59948,2469.806,2019-6-08T06:13:12Z
2019-06-08T04:16:00Z,42.805,6.029,13.2948,4.59948,2469.773,2019-6-08T06:16:15Z
2019-06-08T04:19:03Z,42.805,6.029,13.2951,4.59950,2469.783,2019-6-08T06:19:18Z
2019-06-08T04:22:05Z,42.805,6.029,13.2948,4.59948,2469.783,2019-6-08T06:22:21Z
2019-06-08T04:25:08Z,42.805,6.029,13.2948,4.59948,2469.797,2019-6-08T06:25:24Z
2019-06-08T04:28:11Z,42.805,6.029,13.2951,4.59948,2469.783,2019-6-08T06:28:27Z
2019-06-08T04:31:14Z,42.805,6.029,13.2950,4.59948,2469.797,2019-6-08T06:31:30Z
2019-06-08T04:34:17Z,42.805,6.029,13.2952,4.59951,2469.797,2019-6-08T06:34:33Z
2019-06-08T04:37:20Z,42.805,6.029,13.2952,4.59949,2469.797,2019-6-08T06:37:36Z
2019-06-08T04:40:23Z,42.805,6.029,13.2952,4.59947,2469.76,2019-6-08T06:40:39Z
2019-06-08T04:43:26Z,42.805,6.029,13.2949,4.59947,2469.76,2019-6-08T06:43:42Z
2019-06-08T04:46:29Z,42.805,6.029,13.2955,4.59947,2469.783,2019-6-08T06:46:45Z
2019-06-08T04:49:32Z,42.805,6.029,13.2950,4.59948,2469.783,2019-6-08T06:49:48Z
2019-06-08T04:52:35Z,42.805,6.029,13.2951,4.59949,2469.797,2019-6-08T06:52:50Z
2019-06-08T04:55:38Z,42.805,6.029,13.2954,4.59947,2469.76,2019-6-08T06:55:53Z
2019-06-08T04:58:41Z,42.805,6.029,13.2952,4.59948,2469.773,2019-6-08T06:58:56Z
2019-06-08T05:01:44Z,42.805,6.029,13.2952,4.59949,2469.76,2019-6-08T07:01:59Z
2019-06-08T05:04:47Z,42.805,6.029,13.2947,4.59949,2469.797,2019-6-08T07:05:02Z
2019-06-08T05:07:50Z,42.805,6.029,13.2950,4.59948,2469.806,2019-6-08T07:08:05Z
2019-06-08T05:10:53Z,42.805,6.029,13.2952,4.59948,2469.773,2019-6-08T07:11:08Z
2019-06-08T05:13:55Z,42.805,6.029,13.2948,4.59948,2469.76,2019-6-08T07:14:11Z
2019-06-08T05:16:58Z,42.805,6.029,13.2948,4.59947,2469.76,2019-6-08T07:17:14Z
2019-06-08T05:20:01Z,42.805,6.029,13.2952,4.59948,2469.783,2019-6-08T07:20:17Z
2019-06-08T05:23:04Z,42.805,6.029,13.2949,4.59948,2469.783,2019-6-08T07:23:20Z
2019-06-08T05:26:07Z,42.805,6.029,13.2952,4.59948,2469.76,2019-6-08T07:26:23Z
2019-06-08T05:29:10Z,42.805,6.029,13.2946,4.59948,2469.76,2019-6-08T07:29:26Z
2019-06-08T05:32:13Z,42.805,6.029,13.2951,4.59948,2469.76,2019-6-08T07:32:29Z
2019-06-08T05:35:16Z,42.805,6.029,13.2952,4.59947,2469.737,2019-6-08T07:35:32Z
2019-06-08T05:38:19Z,42.805,6.029,13.2950,4.59949,2469.76,2019-6-08T07:38:35Z
2019-06-08T05:41:22Z,42.805,6.029,13.2950,4.59948,2469.76,2019-6-08T07:41:38Z
2019-06-08T05:44:25Z,42.805,6.029,13.2949,4.59949,2469.76,2019-6-08T07:44:40Z
2019-06-08T05:47:28Z,42.805,6.029,13.2952,4.59949,2469.76,2019-6-08T07:47:43Z
2019-06-08T05:50:31Z,42.805,6.029,13.2948,4.59948,2469.797,2019-6-08T07:50:46Z
2019-06-08T05:53:34Z,42.805,6.029,13.2952,4.59950,2469.773,2019-6-08T07:53:49Z
2019-06-08T05:56:37Z,42.805,6.029,13.2952,4.59951,2469.773,2019-6-08T07:56:52Z
2019-06-08T05:59:40Z,42.805,6.029,13.2951,4.59950,2469.76,2019-6-08T07:59:55Z
2019-06-08T06:02:43Z,42.805,6.029,13.2950,4.59948,2469.76,2019-6-08T08:02:58Z
2019-06-08T06:05:46Z,42.805,6.029,13.2949,4.59947,2469.76,2019-6-08T08:06:01Z
2019-06-08T06:08:48Z,42.805,6.029,13.2952,4.59951,2469.737,2019-6-08T08:09:04Z
2019-06-08T06:11:51Z,42.805,6.029,13.2951,4.59948,2469.76,2019-6-08T08:12:07Z
2019-06-08T06:14:54Z,42.805,6.029,13.2952,4.59948,2469.76,2019-6-08T08:15:10Z
2019-06-08T06:17:57Z,42.805,6.029,13.2950,4.59949,2469.797,2019-6-08T08:18:13Z
2019-06-08T06:21:00Z,42.805,6.029,13.2951,4.59948,2469.737,2019-6-08T08:21:16Z
2019-06-08T06:24:03Z,42.805,6.029,13.2952,4.59948,2469.783,2019-6-08T08:24:19Z
2019-06-08T06:27:06Z,42.805,6.029,13.2950,4.59950,2469.76,2019-6-08T08:27:22Z
2019-06-08T06:30:09Z,42.805,6.029,13.2952,4.59949,2469.76,2019-6-08T08:30:25Z
2019-06-08T06:33:12Z,42.805,6.029,13.2948,4.59949,2469.76,2019-6-08T08:33:28Z
2019-06-08T06:36:15Z,42.805,6.029,13.2952,4.59949,2469.773,2019-6-08T08:36:31Z
2019-06-08T06:39:18Z,42.805,6.029,13.2952,4.59950,2469.737,2019-6-08T08:39:33Z
2019-06-08T06:42:21Z,42.805,6.029,13.2947,4.59948,2469.76,2019-6-08T08:42:36Z
2019-06-08T06:45:24Z,42.805,6.029,13.2949,4.59948,2469.75,2019-6-08T08:45:39Z
2019-06-08T06:48:27Z,42.805,6.029,13.2952,4.59949,2469.773,2019-6-08T08:48:42Z
2019-06-08T06:51:30Z,42.805,6.029,13.2949,4.59949,2469.76,2019-6-08T08:51:45Z
2019-06-08T06:54:33Z,42.805,6.029,13.2948,4.59949,2469.76,2019-6-08T08:54:48Z
2019-06-08T06:57:36Z,42.805,6.029,13.2948,4.59948,2469.783,2019-6-08T08:57:51Z
2019-06-08T07:00:39Z,42.805,6.029,13.2948,4.59948,2469.737,2019-6-08T09:00:54Z
2019-06-08T07:03:41Z,42.805,6.029,13.2954,4.59948,2469.76,2019-6-08T09:03:57Z
2019-06-08T07:06:44Z,42.805,6.029,13.2948,4.59948,2469.783,2019-6-08T09:07:00Z
2019-06-08T07:09:47Z,42.805,6.029,13.2948,4.59948,2469.75,2019-6-08T09:10:03Z
2019-06-08T07:12:50Z,42.805,6.029,13.2953,4.59949,2469.773,2019-6-08T09:13:06Z
2019-06-08T07:15:53Z,42.805,6.029,13.2949,4.59951,2469.76,2019-6-08T09:16:09Z
2019-06-08T07:18:56Z,42.805,6.029,13.2950,4.59949,2469.797,2019-6-08T09:19:12Z
2019-06-08T07:21:59Z,42.805,6.029,13.2946,4.59948,2469.783,2019-6-08T09:22:15Z
2019-06-08T07:25:02Z,42.805,6.029,13.2952,4.59948,2469.821,2019-6-08T09:25:18Z
2019-06-08T07:28:05Z,42.805,6.029,13.2948,4.59949,2469.769,2019-6-08T09:28:21Z
2019-06-08T07:31:08Z,42.805,6.029,13.2948,4.59948,2469.783,2019-6-08T09:31:24Z
2019-06-08T07:34:11Z,42.805,6.029,13.2950,4.59948,2469.75,2019-6-08T09:34:26Z
2019-06-08T07:37:14Z,42.805,6.029,13.2950,4.59948,2469.783,2019-6-08T09:37:29Z
2019-06-08T07:40:17Z,42.805,6.029,13.2952,4.59948,2469.76,2019-6-08T09:40:32Z
2019-06-08T07:43:20Z,42.805,6.029,13.2950,4.59948,2469.783,2019-6-08T09:43:35Z
2019-06-08T07:46:23Z,42.805,6.029,13.2951,4.59949,2469.797,2019-6-08T09:46:38Z
2019-06-08T07:49:26Z,42.805,6.029,13.2948,4.59949,2469.76,2019-6-08T09:49:41Z
2019-06-08T07:52:29Z,42.805,6.029,13.2950,4.59948,2469.76,2019-6-08T09:52:44Z
2019-06-08T07:55:32Z,42.805,6.029,13.2950,4.59953,2469.76,2019-6-08T09:55:47Z
2019-06-08T07:58:34Z,42.805,6.029,13.2952,4.59948,2469.773,2019-6-08T09:58:50Z
2019-06-08T08:01:37Z,42.805,6.029,13.2950,4.59948,2469.806,2019-6-08T10:01:53Z
2019-06-08T08:04:40Z,42.805,6.029,13.2951,4.59948,2469.821,2019-6-08T10:04:56Z
2019-06-08T08:07:43Z,42.805,6.029,13.2952,4.59949,2469.783,2019-6-08T10:07:59Z
2019-06-08T08:10:46Z,42.805,6.029,13.2948,4.59950,2469.76,2019-6-08T10:11:02Z
2019-06-08T08:13:49Z,42.805,6.029,13.2952,4.59948,2469.806,2019-6-08T10:14:05Z
2019-06-08T08:16:52Z,42.805,6.029,13.2953,4.59948,2469.783,2019-6-08T10:17:08Z
2019-06-08T08:19:55Z,42.805,6.029,13.2949,4.59948,2469.821,2019-6-08T10:20:11Z
2019-06-08T08:22:58Z,42.805,6.029,13.2952,4.59948,2469.797,2019-6-08T10:23:14Z
2019-06-08T08:26:01Z,42.805,6.029,13.2949,4.59950,2469.806,2019-6-08T10:26:17Z
2019-06-08T08:29:04Z,42.805,6.029,13.2950,4.59948,2469.821,2019-6-08T10:29:19Z
2019-06-08T08:32:07Z,42.805,6.029,13.2948,4.59948,2469.783,2019-6-08T10:32:22Z
2019-06-08T08:35:10Z,42.805,6.029,13.2949,4.59948,2469.821,2019-6-08T10:35:25Z
2019-06-08T08:38:13Z,42.805,6.029,13.2950,4.59950,2469.783,2019-6-08T10:38:28Z
2019-06-08T08:41:16Z,42.805,6.029,13.2955,4.59948,2469.783,2019-6-08T10:41:31Z
2019-06-08T08:44:19Z,42.805,6.029,13.2952,4.59948,2469.821,2019-6-08T10:44:34Z
2019-06-08T08:47:22Z,42.805,6.029,13.2948,4.59948,2469.797,2019-6-08T10:47:37Z
2019-06-08T08:50:25Z,42.805,6.029,13.2951,4.59950,2469.821,2019-6-08T10:50:40Z
2019-06-08T08:53:28Z,42.805,6.029,13.2949,4.59948,2469.806,2019-6-08T10:53:43Z
2019-06-08T08:56:30Z,42.805,6.029,13.2950,4.59948,2469.806,2019-6-08T10:56:46Z
2019-06-08T08:59:33Z,42.805,6.029,13.2952,4.59948,2469.806,2019-6-08T10:59:49Z
2019-06-08T09:02:36Z,42.805,6.029,13.2947,4.59948,2469.783,2019-6-08T11:02:52Z
2019-06-08T09:05:39Z,42.805,6.029,13.2953,4.59948,2469.83,2019-6-08T11:05:55Z
2019-06-08T09:08:42Z,42.805,6.029,13.2951,4.59949,2469.853,2019-6-08T11:08:58Z
2019-06-08T09:11:45Z,42.805,6.029,13.2953,4.59949,2469.844,2019-6-08T11:12:01Z
2019-06-08T09:14:48Z,42.805,6.029,13.2952,4.59949,2469.821,2019-6-08T11:15:04Z
2019-06-08T09:17:51Z,42.805,6.029,13.2953,4.59948,2469.844,2019-6-08T11:18:07Z
2019-06-08T09:20:54Z,42.805,6.029,13.2954,4.59948,2469.853,2019-6-08T11:21:10Z
2019-06-08T09:23:57Z,42.805,6.029,13.2953,4.59950,2469.83,2019-6-08T11:24:13Z
2019-06-08T09:27:00Z,42.805,6.029,13.2950,4.59949,2469.83,2019-6-08T11:27:16Z
2019-06-08T09:30:03Z,42.805,6.029,13.2948,4.59948,2469.821,2019-6-08T11:30:18Z
2019-06-08T09:33:06Z,42.805,6.029,13.2952,4.59948,2469.867,2019-6-08T11:33:21Z
2019-06-08T09:36:09Z,42.805,6.029,13.2949,4.59949,2469.821,2019-6-08T11:36:24Z
2019-06-08T09:39:12Z,42.805,6.029,13.2951,4.59948,2469.821,2019-6-08T11:39:27Z
2019-06-08T09:42:15Z,42.805,6.029,13.2952,4.59947,2469.806,2019-6-08T11:42:30Z
2019-06-08T09:45:18Z,42.805,6.029,13.2950,4.59949,2469.83,2019-6-08T11:45:33Z
2019-06-08T09:48:21Z,42.805,6.029,13.2952,4.59948,2469.844,2019-6-08T11:48:36Z
2019-06-08T09:51:24Z,42.805,6.029,13.2952,4.59948,2469.821,2019-6-08T11:51:39Z
2019-06-08T09:54:27Z,42.805,6.029,13.2950,4.59947,2469.83,2019-6-08T11:54:42Z
2019-06-08T09:57:29Z,42.805,6.029,13.2954,4.59948,2469.844,2019-6-08T11:57:45Z
2019-06-08T10:00:32Z,42.805,6.029,13.2948,4.59950,2469.83,2019-6-08T12:00:48Z
2019-06-08T10:03:35Z,42.805,6.029,13.2953,4.59948,2469.867,2019-6-08T12:03:51Z
2019-06-08T10:06:38Z,42.805,6.029,13.2951,4.59949,2469.83,2019-6-08T12:06:54Z
2019-06-08T10:09:41Z,42.805,6.029,13.2949,4.59948,2469.83,2019-6-08T12:09:57Z
2019-06-08T10:12:44Z,42.805,6.029,13.2952,4.59948,2469.821,2019-6-08T12:13:00Z
2019-06-08T10:15:47Z,42.805,6.029,13.2950,4.59948,2469.844,2019-6-08T12:16:03Z
2019-06-08T10:18:50Z,42.805,6.029,13.2954,4.59949,2469.844,2019-6-08T12:19:06Z
2019-06-08T10:21:53Z,42.805,6.029,13.2948,4.59950,2469.867,2019-6-08T12:22:09Z
2019-06-08T10:24:56Z,42.805,6.029,13.2951,4.59949,2469.867,2019-6-08T12:25:12Z
2019-06-08T10:27:59Z,42.805,6.029,13.2948,4.59950,2469.821,2019-6-08T12:28:15Z
2019-06-08T10:31:02Z,42.805,6.029,13.2949,4.59949,2469.853,2019-6-08T12:31:17Z
2019-06-08T10:34:05Z,42.805,6.029,13.2950,4.59951,2469.83,2019-6-08T12:34:20Z
2019-06-08T10:37:08Z,42.805,6.029,13.2952,4.59949,2469.844,2019-6-08T12:37:23Z
2019-06-08T10:40:11Z,42.805,6.029,13.2948,4.59948,2469.806,2019-6-08T12:40:26Z
2019-06-08T10:43:14Z,42.805,6.029,13.2954,4.59948,2469.853,2019-6-08T12:43:29Z
2019-06-08T10:46:17Z,42.805,6.029,13.2947,4.59950,2469.83,2019-6-08T12:46:32Z
2019-06-08T10:49:20Z,42.805,6.029,13.2948,4.59949,2469.806,2019-6-08T12:49:35Z
2019-06-08T10:52:23Z,42.805,6.029,13.2952,4.59949,2469.844,2019-6-08T12:52:38Z
2019-06-08T10:55:25Z,42.805,6.029,13.2950,4.59948,2469.821,2019-6-08T12:55:41Z
2019-06-08T10:58:28Z,42.805,6.029,13.2949,4.59948,2469.806,2019-6-08T12:58:44Z
2019-06-08T11:01:31Z,42.805,6.029,13.2950,4.59948,2469.83,2019-6-08T13:01:47Z
2019-06-08T11:04:34Z,42.805,6.029,13.2953,4.59948,2469.844,2019-6-08T13:04:50Z
2019-06-08T11:07:37Z,42.805,6.029,13.2951,4.59948,2469.806,2019-6-08T13:07:53Z
2019-06-08T11:10:40Z,42.805,6.029,13.2946,4.59948,2469.83,2019-6-08T13:10:56Z
2019-06-08T11:13:43Z,42.805,6.029,13.2953,4.59950,2469.83,2019-6-08T13:13:59Z
2019-06-08T11:16:46Z,42.805,6.029,13.2952,4.59949,2469.821,2019-6-08T13:17:02Z
2019-06-08T11:19:49Z,42.805,6.029,13.2952,4.59949,2469.806,2019-6-08T13:20:05Z
2019-06-08T11:22:52Z,42.805,6.029,13.2948,4.59948,2469.821,2019-6-08T13:23:08Z
2019-06-08T11:25:55Z,42.805,6.029,13.2954,4.59948,2469.783,2019-6-08T13:26:11Z
2019-06-08T11:28:58Z,42.805,6.029,13.2948,4.59951,2469.83,2019-6-08T13:29:13Z
2019-06-08T11:32:01Z,42.805,6.029,13.2955,4.59949,2469.793,2019-6-08T13:32:16Z
2019-06-08T11:35:04Z,42.805,6.029,13.2952,4.59949,2469.806,2019-6-08T13:35:19Z
2019-06-08T11:38:07Z,42.805,6.029,13.2953,4.59950,2469.806,2019-6-08T13:38:22Z
2019-06-08T11:41:10Z,42.805,6.029,13.2952,4.59949,2469.821,2019-6-08T13:41:25Z
2019-06-08T11:44:13Z,42.805,6.029,13.2949,4.59950,2469.83,2019-6-08T13:44:28Z
2019-06-08T11:47:16Z,42.805,6.029,13.2950,4.59948,2469.83,2019-6-08T13:47:31Z
2019-06-08T11:50:19Z,42.805,6.029,13.2948,4.59948,2469.797,2019-6-08T13:50:34Z
2019-06-08T11:53:21Z,42.805,6.029,13.2952,4.59949,2469.83,2019-6-08T13:53:37Z
2019-06-08T11:56:24Z,42.805,6.029,13.2951,4.59948,2469.821,2019-6-08T13:56:40Z
2019-06-08T11:59:27Z,42.805,6.029,13.2949,4.59948,2469.83,2019-6-08T13:59:43Z
2019-06-08T12:02:30Z,42.805,6.029,13.2948,4.59949,2469.806,2019-6-08T14:02:46Z
2019-06-08T12:05:33Z,42.805,6.029,13.2949,4.59948,2469.806,2019-6-08T14:05:49Z
2019-06-08T12:08:36Z,42.805,6.029,13.2949,4.59950,2469.797,2019-6-08T14:08:52Z
2019-06-08T12:11:39Z,42.805,6.029,13.2949,4.59948,2469.783,2019-6-08T14:11:55Z
2019-06-08T12:14:42Z,42.805,6.029,13.2951,4.59947,2469.821,2019-6-08T14:14:58Z
2019-06-08T12:17:45Z,42.805,6.029,13.2948,4.59950,2469.806,2019-6-08T14:18:01Z
2019-06-08T12:20:48Z,42.805,6.029,13.2948,4.59949,2469.806,2019-6-08T14:21:04Z
2019-06-08T12:23:51Z,42.805,6.029,13.2950,4.59948,2469.844,2019-6-08T14:24:07Z
2019-06-08T12:26:54Z,42.805,6.029,13.2953,4.59948,2469.783,2019-6-08T14:27:09Z
2019-06-08T12:29:57Z,42.805,6.029,13.2948,4.59948,2469.806,2019-6-08T14:30:12Z
2019-06-08T12:33:00Z,42.805,6.029,13.2951,4.59948,2469.806,2019-6-08T14:33:15Z
2019-06-08T12:36:03Z,42.805,6.029,13.2951,4.59948,2469.797,2019-6-08T14:36:18Z
2019-06-08T12:39:06Z,42.805,6.029,13.2949,4.59948,2469.821,2019-6-08T14:39:21Z
2019-06-08T12:42:09Z,42.805,6.029,13.2952,4.59948,2469.806,2019-6-08T14:42:24Z
2019-06-08T12:45:12Z,42.805,6.029,13.2946,4.59948,2469.797,2019-6-08T14:45:27Z
2019-06-08T12:48:15Z,42.805,6.029,13.2952,4.59947,2469.797,2019-6-08T14:48:30Z
2019-06-08T12:51:17Z,42.805,6.029,13.2950,4.59947,2469.821,2019-6-08T14:51:33Z
2019-06-08T12:54:20Z,42.805,6.029,13.2948,4.59947,2469.773,2019-6-08T14:54:36Z
2019-06-08T12:57:23Z,42.805,6.029,13.2952,4.59947,2469.773,2019-6-08T14:57:39Z
2019-06-08T13:00:26Z,42.805,6.029,13.2949,4.59948,2469.76,2019-6-08T15:00:42Z
2019-06-08T13:03:29Z,42.805,6.029,13.2953,4.59947,2469.797,2019-6-08T15:03:45Z
2019-06-08T13:06:32Z,42.805,6.029,13.2948,4.59947,2469.773,2019-6-08T15:06:48Z
2019-06-08T13:09:35Z,42.805,6.029,13.2952,4.59947,2469.773,2019-6-08T15:09:51Z
2019-06-08T13:12:38Z,42.805,6.029,13.2951,4.59947,2469.76,2019-6-08T15:12:54Z
2019-06-08T13:15:41Z,42.805,6.029,13.2953,4.59948,2469.76,2019-6-08T15:15:57Z
2019-06-08T13:18:44Z,42.805,6.029,13.2948,4.59948,2469.797,2019-6-08T15:19:00Z
2019-06-08T13:21:47Z,42.805,6.029,13.2948,4.59946,2469.76,2019-6-08T15:22:03Z
2019-06-08T13:24:50Z,42.805,6.029,13.2949,4.59947,2469.76,2019-6-08T15:25:05Z
2019-06-08T13:27:53Z,42.805,6.029,13.2949,4.59947,2469.773,2019-6-08T15:28:08Z
2019-06-08T13:30:56Z,42.805,6.029,13.2952,4.59947,2469.76,2019-6-08T15:31:11Z
2019-06-08T13:33:59Z,42.805,6.029,13.2948,4.59947,2469.75,2019-6-08T15:34:14Z
2019-06-08T13:37:02Z,42.805,6.029,13.2945,4.59947,2469.773,2019-6-08T15:37:17Z
2019-06-08T13:40:05Z,42.805,6.029,13.2953,4.59948,2469.76,2019-6-08T15:40:20Z
2019-06-08T13:43:08Z,42.805,6.029,13.2951,4.59946,2469.76,2019-6-08T15:43:23Z
2019-06-08T13:46:11Z,42.805,6.029,13.2946,4.59947,2469.773,2019-6-08T15:46:26Z
2019-06-08T13:49:13Z,42.805,6.029,13.2948,4.59949,2469.76,2019-6-08T15:49:29Z
2019-06-08T13:52:16Z,42.805,6.029,13.2948,4.59947,2469.737,2019-6-08T15:52:32Z
2019-06-08T13:55:19Z,42.805,6.029,13.2951,4.59947,2469.737,2019-6-08T15:55:35Z
2019-06-08T13:58:22Z,42.805,6.029,13.2951,4.59947,2469.76,2019-6-08T15:58:38Z
2019-06-08T14:01:25Z,42.805,6.029,13.2953,4.59946,2469.75,2019-6-08T16:01:41Z
2019-06-08T14:04:28Z,42.805,6.029,13.2949,4.59948,2469.75,2019-6-08T16:04:44Z
2019-06-08T14:07:31Z,42.805,6.029,13.2950,4.59948,2469.773,2019-6-08T16:07:47Z
2019-06-08T14:10:34Z,42.805,6.029,13.2952,4.59948,2469.76,2019-6-08T16:10:50Z
2019-06-08T14:13:37Z,42.805,6.029,13.2949,4.59948,2469.713,2019-6-08T16:13:53Z
2019-06-08T14:16:40Z,42.805,6.029,13.2949,4.59947,2469.76,2019-6-08T16:16:56Z
2019-06-08T14:19:43Z,42.805,6.029,13.2948,4.59947,2469.75,2019-6-08T16:19:59Z
2019-06-08T14:22:46Z,42.805,6.029,13.2952,4.59947,2469.713,2019-6-08T16:23:02Z
2019-06-08T14:25:49Z,42.805,6.029,13.2949,4.59947,2469.713,2019-6-08T16:26:04Z
2019-06-08T14:28:52Z,42.805,6.029,13.2952,4.59947,2469.737,2019-6-08T16:29:07Z
2019-06-08T14:31:55Z,42.805,6.029,13.2951,4.59948,2469.737,2019-6-08T16:32:10Z
2019-06-08T14:34:58Z,42.805,6.029,13.2950,4.59948,2469.713,2019-6-08T16:35:13Z
2019-06-08T14:38:01Z,42.805,6.029,13.2949,4.59947,2469.737,2019-6-08T16:38:16Z
2019-06-08T14:41:04Z,42.805,6.029,13.2950,4.59947,2469.737,2019-6-08T16:41:19Z
2019-06-08T14:44:07Z,42.805,6.029,13.2948,4.59947,2469.727,2019-6-08T16:44:22Z
2019-06-08T14:47:10Z,42.805,6.029,13.2951,4.59948,2469.704,2019-6-08T16:47:25Z
2019-06-08T14:50:12Z,42.805,6.029,13.2947,4.59948,2469.773,2019-6-08T16:50:28Z
2019-06-08T14:53:15Z,42.805,6.029,13.2951,4.59948,2469.75,2019-6-08T16:53:31Z
2019-06-08T14:56:18Z,42.805,6.029,13.2951,4.59949,2469.737,2019-6-08T16:56:34Z
2019-06-08T14:59:21Z,42.805,6.029,13.2950,4.59947,2469.713,2019-6-08T16:59:37Z
2019-06-08T15:02:24Z,42.805,6.029,13.2952,4.59947,2469.727,2019-6-08T17:02:40Z
2019-06-08T15:05:27Z,42.805,6.029,13.2950,4.59948,2469.737,2019-6-08T17:05:43Z
2019-06-08T15:08:30Z,42.805,6.029,13.2947,4.59946,2469.727,2019-6-08T17:08:46Z
2019-06-08T15:11:33Z,42.805,6.029,13.2953,4.59948,2469.727,2019-6-08T17:11:49Z
2019-06-08T15:14:36Z,42.805,6.029,13.2951,4.59948,2469.713,2019-6-08T17:14:52Z